When you browse on this site, cookies collect data to enhance your experience and personalize the content and advertising you see.
Visit our Privacy Policy to learn more. By continuing to use the site, you agree to this use of cookies and data.
  • Em Portugal
  • Lista de países
  • Para 7 dias
  • Temperatura da água
  • Mapas de satélite
  • Mapa do tempo
  • Widgets de tempo
  • user-avatar
    Iniciar Sessão

    Previsão horária em Cibulskie

    Hoje, 19 Novembro, Segunda-feira

    Tempo Temperatura Precipitação Vento Pressão Humidade
    00:00 -1°C° 0 mm 2 m/s 749 mmHg 97%
    01:00 -1°C° 0 mm 2 m/s 749 mmHg 97%
    02:00 -1°C° 0 mm 2 m/s 750 mmHg 97%
    03:00 -1°C° 0 mm 2 m/s 750 mmHg 97%
    04:00 -1°C° 0 mm 2 m/s 750 mmHg 97%
    05:00 -1°C° 0 mm 2 m/s 750 mmHg 97%
    06:00 -1°C° 0 mm 3 m/s 751 mmHg 97%
    07:00 -1°C° 0 mm 3 m/s 751 mmHg 96%
    08:00 -1°C° 0 mm 3 m/s 751 mmHg 96%
    09:00 0°C° 0 mm 3 m/s 752 mmHg 96%
    10:00 0°C° 0 mm 3 m/s 752 mmHg 95%
    11:00 0°C° 0 mm 3 m/s 752 mmHg 94%
    12:00 0°C° 0 mm 3 m/s 752 mmHg 93%
    13:00 0°C° 0 mm 3 m/s 753 mmHg 92%
    14:00 +1°C° 0 mm 2 m/s 753 mmHg 92%
    15:00 0°C° 0 mm 3 m/s 753 mmHg 92%
    16:00 0°C° 0 mm 3 m/s 753 mmHg 91%
    17:00 0°C° 0 mm 3 m/s 753 mmHg 91%
    18:00 -1°C° 0 mm 3 m/s 753 mmHg 91%
    19:00 -1°C° 0 mm 3 m/s 753 mmHg 92%
    20:00 -1°C° 0 mm 3 m/s 753 mmHg 92%
    21:00 -1°C° 0 mm 3 m/s 753 mmHg 92%
    22:00 -2°C° 0 mm 3 m/s 753 mmHg 92%
    23:00 -2°C° 0 mm 3 m/s 753 mmHg 92%

    Amanhã, 20 Novembro, Terça-feira

    Tempo Temperatura Precipitação Vento Pressão Humidade
    00:00 -2°C° 0 mm 3 m/s 753 mmHg 92%
    01:00 -4°C° 0 mm 3 m/s 753 mmHg 92%
    02:00 -4°C° 0 mm 3 m/s 753 mmHg 92%
    03:00 -4°C° 0 mm 3 m/s 753 mmHg 93%
    04:00 -4°C° 0 mm 2 m/s 752 mmHg 93%
    05:00 -4°C° 0 mm 2 m/s 752 mmHg 93%
    06:00 -4°C° 0 mm 2 m/s 752 mmHg 93%
    07:00 -4°C° 0 mm 2 m/s 752 mmHg 93%
    08:00 -4°C° 0 mm 2 m/s 752 mmHg 93%
    09:00 -4°C° 0 mm 2 m/s 752 mmHg 90%
    10:00 -3°C° 0 mm 2 m/s 752 mmHg 88%
    11:00 -2°C° 0 mm 2 m/s 752 mmHg 85%
    12:00 0°C° 0 mm 1 m/s 752 mmHg 84%
    13:00 0°C° 0 mm 1 m/s 752 mmHg 84%
    14:00 0°C° 0 mm 1 m/s 751 mmHg 84%
    15:00 -1°C° 0 mm 1 m/s 751 mmHg 86%
    16:00 -1°C° 0 mm 1 m/s 751 mmHg 88%
    17:00 -4°C° 0 mm 2 m/s 751 mmHg 91%
    18:00 -4°C° 0 mm 2 m/s 751 mmHg 92%
    19:00 -3°C° 0 mm 1 m/s 751 mmHg 92%
    20:00 -3°C° 0 mm 1 m/s 751 mmHg 93%
    21:00 -3°C° 0 mm 1 m/s 751 mmHg 93%
    22:00 -3°C° 0 mm 1 m/s 751 mmHg 93%
    23:00 -3°C° 0 mm 1 m/s 751 mmHg 93%

    Depois de amanhã, 21 Novembro, Quarta-feira

    Tempo Temperatura Precipitação Vento Pressão Humidade
    00:00 -5°C° 0 mm 2 m/s 751 mmHg 92%
    01:00 -5°C° 0 mm 2 m/s 751 mmHg 92%
    02:00 -5°C° 0 mm 2 m/s 751 mmHg 91%
    03:00 -5°C° 0 mm 2 m/s 750 mmHg 90%
    04:00 -5°C° 0 mm 2 m/s 750 mmHg 89%
    05:00 -5°C° 0 mm 2 m/s 750 mmHg 89%
    06:00 -5°C° 0 mm 2 m/s 750 mmHg 89%
    07:00 -5°C° 0 mm 2 m/s 750 mmHg 88%
    08:00 -5°C° 0 mm 2 m/s 750 mmHg 88%
    09:00 -5°C° 0 mm 3 m/s 750 mmHg 87%
    10:00 -4°C° 0 mm 3 m/s 750 mmHg 86%
    11:00 -2°C° 0 mm 3 m/s 750 mmHg 85%
    12:00 -2°C° 0 mm 3 m/s 750 mmHg 84%
    13:00 -2°C° 0 mm 3 m/s 750 mmHg 83%
    14:00 -1°C° 0 mm 3 m/s 750 mmHg 81%
    15:00 -2°C° 0 mm 3 m/s 750 mmHg 82%
    16:00 -2°C° 0 mm 2 m/s 750 mmHg 83%
    17:00 -3°C° 0 mm 2 m/s 750 mmHg 84%
    18:00 -3°C° 0 mm 2 m/s 750 mmHg 86%
    19:00 -4°C° 0 mm 2 m/s 750 mmHg 88%
    20:00 -4°C° 0 mm 2 m/s 750 mmHg 90%
    21:00 -4°C° 0 mm 2 m/s 750 mmHg 91%
    22:00 -5°C° 0 mm 2 m/s 750 mmHg 93%
    23:00 -5°C° 0 mm 2 m/s 750 mmHg 94%

    22 Novembro, Quinta-feira

    Tempo Temperatura Precipitação Vento Pressão Humidade
    00:00 -5°C° 0 mm 2 m/s 750 mmHg 94%
    01:00 -5°C° 0 mm 2 m/s 750 mmHg 94%
    02:00 -5°C° 0 mm 2 m/s 750 mmHg 94%
    03:00 -6°C° 0 mm 3 m/s 750 mmHg 94%
    04:00 -6°C° 0 mm 3 m/s 750 mmHg 93%
    05:00 -6°C° 0 mm 3 m/s 750 mmHg 92%
    06:00 -6°C° 0 mm 3 m/s 750 mmHg 92%
    07:00 -6°C° 0 mm 3 m/s 750 mmHg 93%
    08:00 -6°C° 0 mm 3 m/s 749 mmHg 93%
    09:00 -5°C° 0 mm 3 m/s 749 mmHg 91%
    10:00 -5°C° 0 mm 4 m/s 749 mmHg 90%
    11:00 -4°C° 0 mm 4 m/s 749 mmHg 88%
    12:00 -4°C° 0 mm 4 m/s 748 mmHg 88%
    13:00 -4°C° 0 mm 4 m/s 748 mmHg 87%
    14:00 -5°C° 0 mm 5 m/s 748 mmHg 86%
    15:00 -5°C° 0 mm 5 m/s 748 mmHg 87%
    16:00 -6°C° 0 mm 5 m/s 748 mmHg 88%
    17:00 -6°C° 0 mm 5 m/s 747 mmHg 89%
    18:00 -6°C° 0 mm 5 m/s 747 mmHg 90%
    19:00 -6°C° 0 mm 5 m/s 748 mmHg 91%
    20:00 -6°C° 0 mm 5 m/s 748 mmHg 91%
    21:00 -6°C° 0 mm 5 m/s 748 mmHg 90%
    22:00 -5°C° 0 mm 5 m/s 748 mmHg 89%
    23:00 -5°C° 0 mm 5 m/s 748 mmHg 88%

    23 Novembro, Sexta-feira

    Tempo Temperatura Precipitação Vento Pressão Humidade
    00:00 -4°C° 0 mm 4 m/s 749 mmHg 89%
    01:00 -4°C° 0 mm 3 m/s 749 mmHg 89%
    02:00 -4°C° 0 mm 3 m/s 749 mmHg 90%
    03:00 -4°C° 0 mm 3 m/s 749 mmHg 91%
    04:00 -4°C° 0 mm 3 m/s 750 mmHg 92%
    05:00 -3°C° 0 mm 2 m/s 750 mmHg 93%
    06:00 -3°C° 0 mm 2 m/s 750 mmHg 94%
    07:00 -3°C° 0 mm 2 m/s 751 mmHg 94%
    08:00 -1°C° 0 mm 1 m/s 751 mmHg 95%
    09:00 0°C° 0 mm 1 m/s 751 mmHg 93%
    10:00 0°C° 0 mm 1 m/s 752 mmHg 91%
    11:00 +1°C° 0 mm 1 m/s 752 mmHg 89%
    12:00 +1°C° 0 mm 1 m/s 752 mmHg 90%
    13:00 +1°C° 0 mm 1 m/s 752 mmHg 90%
    14:00 -1°C° 0 mm 2 m/s 752 mmHg 90%
    15:00 -2°C° 0 mm 2 m/s 752 mmHg 91%
    16:00 -2°C° 0 mm 2 m/s 752 mmHg 92%
    17:00 -2°C° 0 mm 2 m/s 752 mmHg 93%
    18:00 -2°C° 0 mm 2 m/s 752 mmHg 93%
    19:00 -2°C° 0 mm 2 m/s 751 mmHg 92%
    20:00 -4°C° 0 mm 3 m/s 751 mmHg 91%
    21:00 -4°C° 0 mm 3 m/s 751 mmHg 91%
    22:00 -4°C° 0 mm 3 m/s 750 mmHg 91%
    23:00 -4°C° 0 mm 3 m/s 750 mmHg 91%

    24 Novembro, Sábado

    Tempo Temperatura Precipitação Vento Pressão Humidade
    00:00 -5°C° 0 mm 4 m/s 750 mmHg 92%
    01:00 -5°C° 0 mm 4 m/s 749 mmHg 92%
    02:00 -7°C° 0 mm 4 m/s 749 mmHg 93%
    03:00 -7°C° 0 mm 4 m/s 749 mmHg 93%
    04:00 -7°C° 0 mm 4 m/s 748 mmHg 93%
    05:00 -8°C° 0 mm 4 m/s 748 mmHg 94%
    06:00 -8°C° 0 mm 4 m/s 747 mmHg 93%
    07:00 -8°C° 0 mm 4 m/s 747 mmHg 93%
    08:00 -8°C° 0 mm 4 m/s 747 mmHg 93%
    09:00 -7°C° 0 mm 4 m/s 746 mmHg 90%
    10:00 -7°C° 0 mm 4 m/s 746 mmHg 88%
    11:00 -5°C° 0 mm 4 m/s 746 mmHg 85%
    12:00 -5°C° 0 mm 4 m/s 746 mmHg 84%
    13:00 -5°C° 0 mm 3 m/s 745 mmHg 83%
    14:00 -4°C° 0 mm 3 m/s 745 mmHg 83%
    15:00 -5°C° 0 mm 3 m/s 745 mmHg 85%
    16:00 -5°C° 0 mm 2 m/s 745 mmHg 87%
    17:00 -5°C° 0 mm 2 m/s 744 mmHg 90%
    18:00 -5°C° 0 mm 2 m/s 744 mmHg 90%
    19:00 -5°C° 0 mm 2 m/s 744 mmHg 90%
    20:00 -5°C° 0 mm 2 m/s 744 mmHg 90%
    21:00 -4°C° 0 mm 1 m/s 744 mmHg 90%
    22:00 -4°C° 0 mm 1 m/s 744 mmHg 90%
    23:00 -4°C° 0 mm 1 m/s 744 mmHg 90%
    Mostrar mais